| time (UTC) | temp F | wind direction | speed MPH | gust MPH | rain 1hr in | rain 24hr in | rain mn in | humidity % | barometer mb |
| 20260507013530 | 66 | 240 | 4.0 | 5.0 | 0.00 | 0.00 | 0.00 | 72 | 1015.8 |
| 20260507013027 | 66 | 241 | 3.0 | 3.0 | 0.00 | 0.00 | 0.00 | 69 | 1015.6 |
| 20260507012524 | 66 | 227 | 3.0 | 5.0 | 0.00 | 0.00 | 0.00 | 68 | 1015.6 |
| 20260507012020 | 67 | 215 | 3.0 | 3.0 | 0.00 | 0.00 | 0.00 | 67 | 1015.7 |
| 20260507011518 | 68 | 183 | 4.0 | 5.0 | 0.00 | 0.00 | 0.00 | 65 | 1015.8 |
| 20260507011014 | 68 | 199 | 1.0 | 1.0 | 0.00 | 0.00 | 0.00 | 66 | 1015.4 |
| 20260507010509 | 68 | 255 | 2.0 | 2.0 | 0.00 | 0.00 | 0.00 | 68 | 1015.7 |
| 20260507010005 | 67 | 249 | 4.0 | 5.0 | 0.00 | 0.00 | 0.00 | 66 | 1015.8 |
| 20260507005503 | 66 | 212 | 3.0 | 5.0 | 0.00 | 0.00 | 0.00 | 67 | 1015.8 |
| 20260507004959 | 67 | 237 | 5.0 | 6.0 | 0.00 | 0.00 | 0.00 | 65 | 1015.9 |
| 20260507004456 | 67 | 256 | 2.0 | 2.0 | 0.00 | 0.00 | 0.00 | 66 | 1015.8 |
| 20260507003954 | 67 | 207 | 5.0 | 6.0 | 0.00 | 0.00 | 0.00 | 64 | 1015.9 |
| 20260507003449 | 67 | 251 | 3.0 | 3.0 | 0.00 | 0.00 | 0.00 | 64 | 1015.7 |
| 20260507002944 | 68 | 249 | 1.0 | 2.0 | 0.00 | 0.00 | 0.00 | 63 | 1015.8 |
| 20260507002441 | 68 | 224 | 5.0 | 6.0 | 0.00 | 0.00 | 0.00 | 63 | 1015.8 |
| 20260507001938 | 68 | 230 | 4.0 | 5.0 | 0.00 | 0.00 | 0.00 | 63 | 1015.8 |
| 20260507001434 | 68 | 215 | 6.0 | 7.0 | 0.00 | 0.00 | 0.00 | 65 | 1015.9 |
| 20260507000932 | 68 | 226 | 5.0 | 7.0 | 0.00 | 0.00 | 0.00 | 62 | 1015.7 |
| 20260507000427 | 67 | 265 | 6.0 | 7.0 | 0.00 | 0.00 | 0.00 | 64 | 1015.9 |
| 20260506235923 | 67 | 240 | 6.0 | 7.0 | 0.00 | 0.00 | 0.00 | 62 | 1015.7 |
| 20260506235421 | 68 | 210 | 4.0 | 6.0 | 0.00 | 0.00 | 0.00 | 63 | 1015.9 |
| 20260506234915 | 68 | 223 | 9.0 | 10.0 | 0.00 | 0.00 | 0.00 | 63 | 1015.8 |
| 20260506234414 | 68 | 213 | 7.0 | 8.0 | 0.00 | 0.00 | 0.00 | 62 | 1015.9 |
| 20260506233911 | 68 | 232 | 2.0 | 3.0 | 0.00 | 0.00 | 0.00 | 61 | 1015.6 |
| 20260506233407 | 68 | 246 | 5.0 | 6.0 | 0.00 | 0.00 | 0.00 | 62 | 1015.7 |
| 20260506232904 | 68 | 240 | 5.0 | 6.0 | 0.00 | 0.00 | 0.00 | 63 | 1016.0 |
| 20260506232400 | 67 | 253 | 10.0 | 11.0 | 0.00 | 0.00 | 0.00 | 65 | 1016.0 |
| 20260506231856 | 68 | 219 | 6.0 | 7.0 | 0.00 | 0.00 | 0.00 | 64 | 1016.1 |
| 20260506231354 | 68 | 254 | 8.0 | 11.0 | 0.00 | 0.00 | 0.00 | 64 | 1016.0 |
| 20260506230851 | 68 | 226 | 9.0 | 10.0 | 0.00 | 0.00 | 0.00 | 62 | 1016.0 |
| 20260506230348 | 69 | 222 | 8.0 | 9.0 | 0.00 | 0.00 | 0.00 | 63 | 1016.1 |
| 20260506225844 | 68 | 234 | 5.0 | 6.0 | 0.00 | 0.00 | 0.00 | 67 | 1016.0 |
| 20260506225341 | 69 | 153 | 5.0 | 7.0 | 0.00 | 0.00 | 0.00 | 64 | 1016.1 |
| 20260506224833 | 68 | 238 | 5.0 | 8.0 | 0.00 | 0.00 | 0.00 | 65 | 1016.3 |
| 20260506224330 | 68 | 253 | 3.0 | 3.0 | 0.00 | 0.00 | 0.00 | 65 | 1016.2 |
| 20260506223826 | 68 | 236 | 8.0 | 10.0 | 0.00 | 0.00 | 0.00 | 64 | 1016.3 |
| 20260506223321 | 68 | 212 | 8.0 | 10.0 | 0.00 | 0.00 | 0.00 | 65 | 1016.2 |
| 20260506222819 | 69 | 144 | 3.0 | 3.0 | 0.00 | 0.00 | 0.00 | 65 | 1016.3 |
| 20260506222314 | 69 | 241 | 4.0 | 6.0 | 0.00 | 0.00 | 0.00 | 64 | 1016.5 |
| 20260506221813 | 68 | 263 | 7.0 | 9.0 | 0.00 | 0.00 | 0.00 | 64 | 1016.6 |
| 20260506221310 | 68 | 245 | 5.0 | 6.0 | 0.00 | 0.00 | 0.00 | 64 | 1016.7 |
| 20260506220807 | 69 | 255 | 7.0 | 9.0 | 0.00 | 0.00 | 0.00 | 64 | 1016.5 |
| 20260506220302 | 69 | 240 | 11.0 | 13.0 | 0.00 | 0.00 | 0.00 | 64 | 1016.9 |
| 20260506215759 | 70 | 225 | 9.0 | 10.0 | 0.00 | 0.00 | 0.00 | 64 | 1016.8 |
| 20260506215255 | 69 | 255 | 9.0 | 10.0 | 0.00 | 0.00 | 0.00 | 64 | 1016.8 |
| 20260506214751 | 69 | 239 | 10.0 | 13.0 | 0.00 | 0.00 | 0.00 | 63 | 1016.9 |
| 20260506214248 | 70 | 242 | 6.0 | 8.0 | 0.00 | 0.00 | 0.00 | 63 | 1017.0 |
| 20260506213747 | 69 | 236 | 9.0 | 13.0 | 0.00 | 0.00 | 0.00 | 64 | 1017.2 |
| 20260506213243 | 70 | 259 | 7.0 | 9.0 | 0.00 | 0.00 | 0.00 | 64 | 1016.9 |
| 20260506212740 | 69 | 260 | 4.0 | 5.0 | 0.00 | 0.00 | 0.00 | 62 | 1017.1 |
| 20260506212236 | 70 | 220 | 3.0 | 6.0 | 0.00 | 0.00 | 0.00 | 63 | 1017.0 |
| 20260506211726 | 70 | 251 | 5.0 | 8.0 | 0.00 | 0.00 | 0.00 | 62 | 1017.0 |
| 20260506211222 | 68 | 249 | 5.0 | 7.0 | 0.00 | 0.00 | 0.00 | 63 | 1017.2 |
| 20260506210719 | 69 | 228 | 4.0 | 6.0 | 0.00 | 0.00 | 0.00 | 62 | 1017.3 |
| 20260506210216 | 69 | 259 | 8.0 | 10.0 | 0.00 | 0.00 | 0.00 | 61 | 1017.4 |
| 20260506205713 | 69 | 243 | 8.0 | 11.0 | 0.00 | 0.00 | 0.00 | 62 | 1017.1 |
| 20260506205208 | 69 | 227 | 7.0 | 9.0 | 0.00 | 0.00 | 0.00 | 61 | 1017.4 |
| 20260506204705 | 69 | 250 | 7.0 | 8.0 | 0.00 | 0.00 | 0.00 | 62 | 1017.2 |
| 20260506204203 | 69 | 240 | 11.0 | 13.0 | 0.00 | 0.00 | 0.00 | 61 | 1017.0 |
| 20260506203701 | 70 | 234 | 7.0 | 9.0 | 0.00 | 0.00 | 0.00 | 62 | 1017.4 |
| 20260506203158 | 69 | 181 | 3.0 | 5.0 | 0.00 | 0.00 | 0.00 | 62 | 1017.2 |
| 20260506202656 | 68 | 208 | 3.0 | 6.0 | 0.00 | 0.00 | 0.00 | 65 | 1017.5 |
| 20260506202151 | 68 | 241 | 5.0 | 6.0 | 0.00 | 0.00 | 0.00 | 67 | 1017.5 |
| 20260506201648 | 69 | 222 | 4.0 | 5.0 | 0.00 | 0.00 | 0.00 | 67 | 1017.6 |
| 20260506201144 | 68 | 261 | 2.0 | 3.0 | 0.00 | 0.00 | 0.00 | 69 | 1017.6 |
| 20260506200641 | 67 | 242 | 5.0 | 6.0 | 0.00 | 0.00 | 0.00 | 69 | 1017.7 |
| 20260506200138 | 68 | 216 | 6.0 | 11.0 | 0.00 | 0.00 | 0.00 | 69 | 1017.6 |
| 20260506195635 | 69 | 217 | 7.0 | 9.0 | 0.00 | 0.00 | 0.00 | 67 | 1017.7 |
| 20260506195131 | 68 | 236 | 7.0 | 8.0 | 0.00 | 0.00 | 0.00 | 69 | 1017.7 |
| 20260506194629 | 67 | 232 | 7.0 | 8.0 | 0.00 | 0.00 | 0.00 | 70 | 1017.8 |
| 20260506194125 | 67 | 238 | 8.0 | 10.0 | 0.00 | 0.00 | 0.00 | 69 | 1017.7 |
| 20260506193623 | 67 | 253 | 7.0 | 9.0 | 0.00 | 0.00 | 0.00 | 70 | 1017.6 |
| 20260506193120 | 66 | 226 | 12.0 | 15.0 | 0.00 | 0.00 | 0.00 | 70 | 1017.9 |
| 20260506192616 | 67 | 242 | 6.0 | 10.0 | 0.00 | 0.00 | 0.00 | 69 | 1017.7 |
| 20260506192112 | 68 | 246 | 7.0 | 9.0 | 0.00 | 0.00 | 0.00 | 68 | 1017.8 |
| 20260506191609 | 68 | 231 | 7.0 | 8.0 | 0.00 | 0.00 | 0.00 | 69 | 1017.9 |
| 20260506191105 | 68 | 218 | 4.0 | 6.0 | 0.00 | 0.00 | 0.00 | 69 | 1018.0 |
| 20260506190603 | 68 | 196 | 8.0 | 9.0 | 0.00 | 0.00 | 0.00 | 67 | 1018.0 |
| 20260506190100 | 67 | 225 | 5.0 | 7.0 | 0.00 | 0.00 | 0.00 | 69 | 1018.0 |
| 20260506185557 | 68 | 214 | 5.0 | 6.0 | 0.00 | 0.00 | 0.00 | 69 | 1017.8 |
| 20260506185053 | 68 | 221 | 5.0 | 6.0 | 0.00 | 0.00 | 0.00 | 67 | 1017.9 |
| 20260506184551 | 69 | 262 | 6.0 | 8.0 | 0.00 | 0.00 | 0.00 | 68 | 1018.0 |
| 20260506184048 | 68 | 260 | 5.0 | 6.0 | 0.00 | 0.00 | 0.00 | 67 | 1018.2 |
| 20260506183544 | 69 | 238 | 4.0 | 5.0 | 0.00 | 0.00 | 0.00 | 66 | 1017.8 |
| 20260506183040 | 69 | 235 | 5.0 | 8.0 | 0.00 | 0.00 | 0.00 | 65 | 1018.1 |
| 20260506182538 | 70 | 204 | 5.0 | 7.0 | 0.00 | 0.00 | 0.00 | 64 | 1017.9 |
| 20260506182035 | 69 | 171 | 2.0 | 2.0 | 0.00 | 0.00 | 0.00 | 65 | 1018.1 |
| 20260506181533 | 68 | 283 | 7.0 | 8.0 | 0.00 | 0.00 | 0.00 | 65 | 1018.1 |
| 20260506181029 | 69 | 203 | 3.0 | 5.0 | 0.00 | 0.00 | 0.00 | 64 | 1017.9 |
| 20260506180526 | 67 | 218 | 5.0 | 7.0 | 0.00 | 0.00 | 0.00 | 68 | 1018.1 |
| 20260506180023 | 67 | 223 | 0.0 | 0.0 | 0.00 | 0.00 | 0.00 | 68 | 1018.3 |
| 20260506175519 | 67 | 236 | 1.0 | 2.0 | 0.00 | 0.00 | 0.00 | 66 | 1018.0 |
| 20260506175016 | 68 | 283 | 1.0 | 2.0 | 0.00 | 0.00 | 0.00 | 67 | 1018.1 |
| 20260506174514 | 67 | 195 | 1.0 | 1.0 | 0.00 | 0.00 | 0.00 | 64 | 1018.2 |
| 20260506174010 | 66 | 246 | 1.0 | 1.0 | 0.00 | 0.00 | 0.00 | 64 | 1018.2 |
| 20260506173508 | 66 | 233 | 1.0 | 1.0 | 0.00 | 0.00 | 0.00 | 64 | 1018.4 |
| 20260506173005 | 67 | 237 | 4.0 | 7.0 | 0.00 | 0.00 | 0.00 | 63 | 1018.2 |
| 20260506172502 | 66 | 234 | 3.0 | 5.0 | 0.00 | 0.00 | 0.00 | 64 | 1018.0 |
| 20260506171958 | 67 | 314 | 4.0 | 5.0 | 0.00 | 0.00 | 0.00 | 64 | 1018.1 |
| 20260506171455 | 66 | 244 | 4.0 | 6.0 | 0.00 | 0.00 | 0.00 | 62 | 1018.2 |
| 20260506170953 | 65 | 168 | 0.0 | 0.0 | 0.00 | 0.00 | 0.00 | 65 | 1018.2 |
| 20260506170449 | 66 | 199 | 0.0 | 0.0 | 0.00 | 0.00 | 0.00 | 64 | 1018.1 |
| 20260506165942 | 65 | 266 | 3.0 | 3.0 | 0.00 | 0.00 | 0.00 | 67 | 1018.3 |
| 20260506165440 | 64 | 212 | 2.0 | 3.0 | 0.00 | 0.00 | 0.00 | 68 | 1018.3 |
| 20260506164936 | 65 | 197 | 5.0 | 6.0 | 0.00 | 0.00 | 0.00 | 65 | 1018.2 |
| 20260506164433 | 65 | 240 | 5.0 | 8.0 | 0.00 | 0.00 | 0.00 | 68 | 1018.0 |
| 20260506163925 | 64 | 241 | 3.0 | 5.0 | 0.00 | 0.00 | 0.00 | 67 | 1018.4 |
| 20260506163419 | 64 | 186 | 3.0 | 5.0 | 0.00 | 0.00 | 0.00 | 68 | 1018.3 |
| 20260506162914 | 63 | 233 | 5.0 | 6.0 | 0.00 | 0.00 | 0.00 | 68 | 1018.4 |
| 20260506162413 | 64 | 270 | 1.0 | 2.0 | 0.00 | 0.00 | 0.00 | 69 | 1018.3 |
| 20260506161909 | 64 | 187 | 3.0 | 5.0 | 0.00 | 0.00 | 0.00 | 67 | 1018.2 |
| 20260506161408 | 63 | 182 | 2.0 | 2.0 | 0.00 | 0.00 | 0.00 | 68 | 1018.2 |
| 20260506160859 | 63 | 231 | 4.0 | 5.0 | 0.00 | 0.00 | 0.00 | 68 | 1018.2 |
| 20260506160356 | 63 | 192 | 0.0 | 0.0 | 0.00 | 0.00 | 0.00 | 68 | 1018.2 |
| 20260506155854 | 64 | 31 | 2.0 | 2.0 | 0.00 | 0.00 | 0.00 | 68 | 1018.1 |
| 20260506155350 | 63 | 109 | 0.0 | 0.0 | 0.00 | 0.00 | 0.00 | 69 | 1018.0 |
| 20260506153508 | 64 | 124 | 0.0 | 0.0 | 0.00 | 0.00 | 0.00 | 69 | 1018.2 |
| 20260506153005 | 62 | 71 | 0.0 | 0.0 | 0.00 | 0.00 | 0.00 | 70 | 1018.1 |
| 20260506152502 | 62 | 80 | 1.0 | 2.0 | 0.00 | 0.00 | 0.00 | 69 | 1018.0 |
| 20260506152000 | 62 | 83 | 0.0 | 0.0 | 0.00 | 0.00 | 0.00 | 70 | 1018.2 |
| 20260506151458 | 62 | 95 | 0.0 | 0.0 | 0.00 | 0.00 | 0.00 | 71 | 1018.1 |
| 20260506150955 | 61 | 100 | 0.0 | 0.0 | 0.00 | 0.00 | 0.00 | 72 | 1018.3 |
| 20260506150450 | 60 | 84 | 0.0 | 1.0 | 0.00 | 0.00 | 0.00 | 73 | 1018.2 |
| 20260506145948 | 59 | 60 | 0.0 | 0.0 | 0.00 | 0.00 | 0.00 | 75 | 1018.3 |
| 20260506145444 | 58 | 53 | 2.0 | 2.0 | 0.00 | 0.00 | 0.00 | 75 | 1018.1 |
| 20260506144942 | 59 | 74 | 0.0 | 1.0 | 0.00 | 0.00 | 0.00 | 74 | 1018.1 |
| 20260506144438 | 58 | 79 | 2.0 | 2.0 | 0.00 | 0.00 | 0.00 | 75 | 1017.9 |
| 20260506143937 | 57 | 78 | 0.0 | 0.0 | 0.00 | 0.00 | 0.00 | 77 | 1018.2 |
| 20260506143433 | 57 | 52 | 1.0 | 2.0 | 0.00 | 0.00 | 0.00 | 77 | 1018.1 |
| 20260506142932 | 57 | 68 | 0.0 | 1.0 | 0.00 | 0.00 | 0.00 | 78 | 1017.9 |
| 20260506142429 | 56 | 51 | 0.0 | 0.0 | 0.00 | 0.00 | 0.00 | 78 | 1017.9 |
| 20260506141927 | 56 | 78 | 0.0 | 0.0 | 0.00 | 0.00 | 0.00 | 79 | 1017.8 |
| 20260506141425 | 55 | 63 | 0.0 | 0.0 | 0.00 | 0.00 | 0.00 | 80 | 1017.7 |
| 20260506140923 | 55 | 65 | 0.0 | 0.0 | 0.00 | 0.00 | 0.00 | 81 | 1017.9 |
| 20260506140420 | 54 | 70 | 0.0 | 1.0 | 0.00 | 0.00 | 0.00 | 82 | 1017.7 |
| 20260506135917 | 53 | 66 | 0.0 | 1.0 | 0.00 | 0.00 | 0.00 | 83 | 1017.7 |
| 20260506135414 | 53 | 71 | 0.0 | 0.0 | 0.00 | 0.00 | 0.00 | 84 | 1017.6 |
| 20260506134910 | 53 | 70 | 0.0 | 0.0 | 0.00 | 0.00 | 0.00 | 84 | 1017.6 |
| 20260506134406 | 52 | 65 | 1.0 | 1.0 | 0.00 | 0.00 | 0.00 | 85 | 1017.7 |
| 20260506133903 | 52 | 68 | 0.0 | 1.0 | 0.00 | 0.00 | 0.00 | 85 | 1017.7 |
| 20260506133400 | 52 | 62 | 0.0 | 0.0 | 0.00 | 0.00 | 0.00 | 86 | 1017.7 |
| 20260506132857 | 51 | 62 | 0.0 | 0.0 | 0.00 | 0.00 | 0.00 | 86 | 1017.7 |
| 20260506132354 | 51 | 64 | 0.0 | 0.0 | 0.00 | 0.00 | 0.00 | 87 | 1017.7 |
| 20260506131852 | 51 | 48 | 0.0 | 0.0 | 0.00 | 0.00 | 0.00 | 87 | 1017.6 |
| 20260506131348 | 51 | 70 | 0.0 | 0.0 | 0.00 | 0.00 | 0.00 | 87 | 1017.6 |
| 20260506130845 | 51 | 76 | 0.0 | 0.0 | 0.00 | 0.00 | 0.00 | 87 | 1017.6 |
| 20260506130341 | 51 | 76 | 0.0 | 0.0 | 0.00 | 0.00 | 0.00 | 86 | 1017.4 |
| 20260506125839 | 51 | 57 | 0.0 | 0.0 | 0.00 | 0.00 | 0.00 | 86 | 1017.4 |
| 20260506125338 | 51 | 64 | 0.0 | 0.0 | 0.00 | 0.00 | 0.00 | 86 | 1017.5 |
| 20260506124835 | 51 | 61 | 0.0 | 1.0 | 0.00 | 0.00 | 0.00 | 86 | 1017.4 |
| 20260506124332 | 51 | 67 | 3.0 | 5.0 | 0.00 | 0.00 | 0.00 | 86 | 1017.3 |
| 20260506123830 | 52 | 76 | 1.0 | 1.0 | 0.00 | 0.00 | 0.00 | 86 | 1017.2 |
| 20260506123328 | 52 | 67 | 0.0 | 0.0 | 0.00 | 0.00 | 0.00 | 86 | 1017.2 |
| 20260506122825 | 51 | 61 | 0.0 | 0.0 | 0.00 | 0.00 | 0.00 | 86 | 1017.1 |
| 20260506122322 | 52 | 61 | 0.0 | 0.0 | 0.00 | 0.00 | 0.00 | 86 | 1017.1 |
| 20260506121820 | 52 | 67 | 0.0 | 0.0 | 0.00 | 0.00 | 0.00 | 86 | 1016.9 |
| 20260506121317 | 52 | 75 | 1.0 | 2.0 | 0.00 | 0.00 | 0.00 | 86 | 1016.9 |
| 20260506120814 | 52 | 44 | 2.0 | 3.0 | 0.00 | 0.00 | 0.00 | 86 | 1017.0 |
| 20260506120312 | 52 | 60 | 2.0 | 3.0 | 0.00 | 0.00 | 0.00 | 86 | 1016.8 |
| 20260506115809 | 52 | 65 | 1.0 | 1.0 | 0.00 | 0.00 | 0.00 | 86 | 1016.9 |
| 20260506115307 | 52 | 70 | 0.0 | 1.0 | 0.00 | 0.00 | 0.00 | 86 | 1016.8 |
| 20260506114805 | 52 | 55 | 2.0 | 3.0 | 0.00 | 0.00 | 0.00 | 86 | 1016.8 |
| 20260506114302 | 52 | 64 | 0.0 | 0.0 | 0.00 | 0.00 | 0.00 | 86 | 1016.8 |
| 20260506113801 | 52 | 69 | 0.0 | 0.0 | 0.00 | 0.00 | 0.00 | 86 | 1016.9 |
| 20260506113258 | 52 | 74 | 0.0 | 1.0 | 0.00 | 0.00 | 0.00 | 86 | 1016.9 |
| 20260506112754 | 52 | 76 | 0.0 | 0.0 | 0.00 | 0.00 | 0.00 | 87 | 1016.8 |
| 20260506112252 | 52 | 61 | 0.0 | 0.0 | 0.00 | 0.00 | 0.00 | 87 | 1016.7 |
| 20260506111749 | 52 | 55 | 0.0 | 1.0 | 0.00 | 0.00 | 0.00 | 87 | 1016.8 |
| 20260506111247 | 52 | 65 | 0.0 | 1.0 | 0.00 | 0.00 | 0.00 | 87 | 1016.9 |
| 20260506110743 | 52 | 63 | 1.0 | 1.0 | 0.00 | 0.00 | 0.00 | 87 | 1016.9 |
| 20260506110241 | 52 | 68 | 1.0 | 1.0 | 0.00 | 0.00 | 0.00 | 87 | 1016.9 |
| 20260506105737 | 52 | 56 | 1.0 | 2.0 | 0.00 | 0.00 | 0.00 | 88 | 1017.0 |
| 20260506105235 | 52 | 76 | 0.0 | 1.0 | 0.00 | 0.00 | 0.00 | 88 | 1016.6 |
| 20260506104732 | 52 | 67 | 1.0 | 1.0 | 0.00 | 0.00 | 0.00 | 88 | 1016.7 |
| 20260506104230 | 52 | 56 | 0.0 | 0.0 | 0.00 | 0.00 | 0.00 | 88 | 1016.5 |
| 20260506103727 | 52 | 84 | 1.0 | 1.0 | 0.00 | 0.00 | 0.00 | 88 | 1016.7 |
| 20260506103224 | 52 | 76 | 1.0 | 1.0 | 0.00 | 0.00 | 0.00 | 88 | 1016.6 |
| 20260506102722 | 52 | 76 | 3.0 | 5.0 | 0.00 | 0.00 | 0.00 | 88 | 1016.5 |
| 20260506102220 | 52 | 72 | 0.0 | 0.0 | 0.00 | 0.00 | 0.00 | 88 | 1016.8 |
| 20260506101716 | 52 | 57 | 1.0 | 2.0 | 0.00 | 0.00 | 0.00 | 88 | 1016.7 |
| 20260506101213 | 52 | 56 | 0.0 | 1.0 | 0.00 | 0.00 | 0.00 | 88 | 1016.9 |
| 20260506100711 | 52 | 61 | 0.0 | 1.0 | 0.00 | 0.00 | 0.00 | 88 | 1016.7 |
| 20260506100209 | 52 | 93 | 1.0 | 2.0 | 0.00 | 0.00 | 0.00 | 88 | 1016.8 |
| 20260506095707 | 52 | 76 | 0.0 | 0.0 | 0.00 | 0.00 | 0.00 | 88 | 1016.8 |
| 20260506095203 | 52 | 65 | 0.0 | 0.0 | 0.00 | 0.00 | 0.00 | 88 | 1016.8 |
| 20260506094701 | 53 | 67 | 0.0 | 0.0 | 0.00 | 0.00 | 0.00 | 88 | 1017.1 |
| 20260506094158 | 53 | 70 | 0.0 | 0.0 | 0.00 | 0.00 | 0.00 | 88 | 1017.0 |
| 20260506093657 | 53 | 76 | 0.0 | 0.0 | 0.00 | 0.00 | 0.00 | 88 | 1016.9 |
| 20260506093153 | 53 | 71 | 0.0 | 0.0 | 0.00 | 0.00 | 0.00 | 88 | 1017.0 |
| 20260506092651 | 53 | 65 | 1.0 | 2.0 | 0.00 | 0.00 | 0.00 | 88 | 1016.9 |
| 20260506092149 | 53 | 62 | 0.0 | 0.0 | 0.00 | 0.00 | 0.00 | 88 | 1016.9 |
| 20260506091647 | 53 | 66 | 0.0 | 0.0 | 0.00 | 0.00 | 0.00 | 88 | 1017.1 |
| 20260506091143 | 53 | 68 | 0.0 | 1.0 | 0.00 | 0.00 | 0.00 | 88 | 1017.0 |
| 20260506090641 | 53 | 71 | 0.0 | 1.0 | 0.00 | 0.00 | 0.00 | 88 | 1017.3 |
| 20260506090138 | 53 | 71 | 0.0 | 0.0 | 0.00 | 0.00 | 0.00 | 88 | 1017.1 |
| 20260506085635 | 53 | 56 | 1.0 | 1.0 | 0.00 | 0.00 | 0.00 | 88 | 1017.3 |
| 20260506085131 | 53 | 85 | 2.0 | 2.0 | 0.00 | 0.00 | 0.00 | 88 | 1017.3 |
| 20260506084627 | 53 | 73 | 0.0 | 0.0 | 0.00 | 0.00 | 0.00 | 87 | 1017.4 |
| 20260506084124 | 53 | 70 | 1.0 | 2.0 | 0.00 | 0.00 | 0.00 | 88 | 1017.4 |
| 20260506083621 | 53 | 74 | 2.0 | 3.0 | 0.00 | 0.00 | 0.00 | 88 | 1017.3 |
| 20260506083119 | 54 | 86 | 0.0 | 1.0 | 0.00 | 0.00 | 0.00 | 88 | 1017.3 |
| 20260506082615 | 54 | 68 | 0.0 | 0.0 | 0.00 | 0.00 | 0.00 | 88 | 1017.5 |
| 20260506082111 | 54 | 66 | 0.0 | 0.0 | 0.00 | 0.00 | 0.00 | 87 | 1017.3 |
| 20260506081609 | 54 | 87 | 1.0 | 1.0 | 0.00 | 0.00 | 0.00 | 87 | 1017.4 |
| 20260506081107 | 54 | 82 | 1.0 | 1.0 | 0.00 | 0.00 | 0.00 | 87 | 1017.4 |
| 20260506080604 | 54 | 73 | 0.0 | 0.0 | 0.00 | 0.00 | 0.00 | 87 | 1017.3 |
| 20260506073044 | 56 | 95 | 2.0 | 2.0 | 0.00 | 0.00 | 0.00 | 86 | 1017.4 |
| 20260506072541 | 56 | 123 | 3.0 | 3.0 | 0.00 | 0.00 | 0.00 | 86 | 1017.4 |
| 20260506072039 | 56 | 112 | 2.0 | 2.0 | 0.00 | 0.00 | 0.00 | 86 | 1017.3 |
| 20260506071537 | 56 | 79 | 2.0 | 2.0 | 0.00 | 0.00 | 0.00 | 86 | 1017.2 |
| 20260506071034 | 56 | 130 | 4.0 | 5.0 | 0.00 | 0.00 | 0.00 | 86 | 1017.1 |
| 20260506070531 | 56 | 117 | 0.0 | 2.0 | 0.00 | 0.00 | 0.00 | 86 | 1017.2 |
| 20260506062509 | 56 | 111 | 1.0 | 1.0 | 0.00 | 0.00 | 0.00 | 85 | 1016.5 |
| 20260506062005 | 56 | 110 | 2.0 | 2.0 | 0.00 | 0.00 | 0.00 | 85 | 1016.7 |
| 20260506061501 | 56 | 100 | 0.0 | 0.0 | 0.00 | 0.00 | 0.00 | 85 | 1016.4 |
| 20260506060959 | 57 | 94 | 1.0 | 1.0 | 0.00 | 0.00 | 0.00 | 85 | 1016.6 |
| 20260506060457 | 57 | 121 | 0.0 | 1.0 | 0.00 | 0.00 | 0.00 | 85 | 1016.4 |
| 20260506050926 | 57 | 121 | 0.0 | 0.0 | 0.00 | 0.00 | 0.00 | 86 | 1016.2 |
| 20260506050424 | 57 | 121 | 0.0 | 0.0 | 0.00 | 0.00 | 0.00 | 86 | 1016.2 |
| 20260506044914 | 57 | 144 | 0.0 | 0.0 | 0.00 | 0.00 | 0.00 | 86 | 1016.2 |
| 20260506044412 | 57 | 149 | 0.0 | 0.0 | 0.00 | 0.00 | 0.00 | 86 | 1015.8 |
| 20260506043909 | 57 | 121 | 0.0 | 0.0 | 0.00 | 0.00 | 0.00 | 86 | 1015.8 |
| 20260506043406 | 57 | 135 | 0.0 | 0.0 | 0.00 | 0.00 | 0.00 | 86 | 1015.8 |
| 20260506042904 | 57 | 144 | 0.0 | 0.0 | 0.00 | 0.00 | 0.00 | 86 | 1016.0 |
| 20260506042403 | 57 | 155 | 0.0 | 0.0 | 0.00 | 0.00 | 0.00 | 86 | 1016.0 |
| 20260506041901 | 57 | 162 | 0.0 | 0.0 | 0.00 | 0.00 | 0.00 | 86 | 1015.6 |
| 20260506041358 | 57 | 160 | 0.0 | 0.0 | 0.00 | 0.00 | 0.00 | 86 | 1015.7 |
| 20260506040855 | 57 | 144 | 0.0 | 0.0 | 0.00 | 0.00 | 0.00 | 85 | 1015.7 |
| 20260506040353 | 57 | 170 | 1.0 | 1.0 | 0.00 | 0.00 | 0.00 | 85 | 1015.7 |
| 20260506035848 | 57 | 174 | 0.0 | 0.0 | 0.00 | 0.00 | 0.00 | 85 | 1015.7 |
| 20260506035346 | 57 | 189 | 0.0 | 0.0 | 0.00 | 0.00 | 0.00 | 85 | 1015.4 |
| 20260506034843 | 57 | 144 | 1.0 | 1.0 | 0.00 | 0.00 | 0.00 | 85 | 1015.2 |
| 20260506034340 | 57 | 182 | 0.0 | 0.0 | 0.00 | 0.00 | 0.00 | 85 | 1015.2 |
| 20260506033837 | 57 | 182 | 1.0 | 1.0 | 0.00 | 0.00 | 0.00 | 85 | 1015.3 |
| 20260506033334 | 57 | 162 | 0.0 | 0.0 | 0.00 | 0.00 | 0.00 | 84 | 1015.2 |
| 20260506032831 | 57 | 176 | 2.0 | 2.0 | 0.00 | 0.00 | 0.00 | 84 | 1015.0 |
| 20260506032328 | 58 | 203 | 1.0 | 2.0 | 0.00 | 0.00 | 0.00 | 84 | 1015.1 |
| 20260506031825 | 58 | 194 | 1.0 | 1.0 | 0.00 | 0.00 | 0.00 | 84 | 1015.0 |
| 20260506031322 | 58 | 222 | 1.0 | 2.0 | 0.00 | 0.00 | 0.00 | 83 | 1014.9 |
| 20260506030820 | 58 | 210 | 1.0 | 1.0 | 0.00 | 0.00 | 0.00 | 83 | 1014.7 |
| 20260506030318 | 58 | 166 | 2.0 | 2.0 | 0.00 | 0.00 | 0.00 | 82 | 1014.7 |
| 20260506025814 | 58 | 240 | 1.0 | 2.0 | 0.00 | 0.00 | 0.00 | 82 | 1014.9 |
| 20260506025311 | 59 | 224 | 1.0 | 2.0 | 0.00 | 0.00 | 0.00 | 81 | 1014.6 |
| 20260506024808 | 59 | 217 | 1.0 | 1.0 | 0.00 | 0.00 | 0.00 | 81 | 1014.5 |
| 20260506024304 | 59 | 195 | 3.0 | 5.0 | 0.00 | 0.00 | 0.00 | 80 | 1014.4 |
| 20260506023800 | 59 | 245 | 3.0 | 3.0 | 0.00 | 0.00 | 0.00 | 80 | 1014.3 |
| 20260506023258 | 60 | 231 | 2.0 | 2.0 | 0.00 | 0.00 | 0.00 | 79 | 1014.3 |
| 20260506022754 | 60 | 169 | 5.0 | 7.0 | 0.00 | 0.00 | 0.00 | 78 | 1013.8 |
| 20260506022252 | 60 | 231 | 2.0 | 2.0 | 0.00 | 0.00 | 0.00 | 77 | 1014.0 |
| 20260506021750 | 61 | 205 | 4.0 | 5.0 | 0.00 | 0.00 | 0.00 | 76 | 1014.0 |
| 20260506021247 | 62 | 214 | 4.0 | 5.0 | 0.00 | 0.00 | 0.00 | 75 | 1013.9 |
| 20260506020743 | 62 | 172 | 4.0 | 5.0 | 0.00 | 0.00 | 0.00 | 74 | 1013.9 |
| 20260506020241 | 62 | 234 | 3.0 | 5.0 | 0.00 | 0.00 | 0.00 | 74 | 1014.0 |
| 20260506015738 | 62 | 189 | 2.0 | 3.0 | 0.00 | 0.00 | 0.00 | 74 | 1013.7 |
| 20260506015236 | 62 | 206 | 3.0 | 5.0 | 0.00 | 0.00 | 0.00 | 73 | 1013.9 |
| 20260506014733 | 63 | 214 | 3.0 | 5.0 | 0.00 | 0.00 | 0.00 | 73 | 1013.9 |
| 20260506014229 | 63 | 197 | 5.0 | 7.0 | 0.00 | 0.00 | 0.00 | 73 | 1014.0 |